PA3DZX-13 Weather Reports


Display with metric or nautical units.
time (UTC)temp
F
wind
direction
speed
MPH
gust
MPH
rain 1hr
in
rain 24hr
in
rain mn
in
humidity
%
barometer
mb
20260505052417 46 27 8.0 13.0 0.00 0.00 0.00 97 1011.6
20260505050917 46 28 8.0 13.0 0.00 0.00 0.00 97 1011.6
20260505040914 46 28 11.0 17.0 0.06 0.00 0.00 97 1011.5
20260505035413 46 21 8.0 13.0 0.06 0.00 0.00 98 1011.6
20260505033912 46 24 8.0 15.0 0.10 0.00 0.00 97 1011.8
20260505032412 46 18 8.0 15.0 0.08 0.00 0.00 98 1011.7
20260505030912 48 10 8.0 15.0 0.12 0.00 0.00 98 1011.6
20260505025412 48 12 11.0 15.0 0.11 0.00 0.00 97 1011.6
20260505023911 50 358 8.0 13.0 0.07 0.00 0.00 99 1011.7
20260505022412 50 351 8.0 13.0 0.06 0.00 0.00 99 1011.7
20260505020911 50 2 8.0 11.0 0.11 0.00 0.00 99 1011.7
20260505015411 51 8 6.0 11.0 0.11 0.00 0.00 99 1011.7
20260505013910 51 14 6.0 11.0 0.04 0.00 0.00 99 1011.8
20260505012409 51 9 6.0 8.0 0.04 0.00 0.00 99 1011.8
20260505010909 51 15 6.0 11.0 0.03 0.00 0.00 99 1011.9
20260505005409 51 13 6.0 11.0 0.02 0.00 0.00 99 1011.9
20260505003909 51 9 6.0 11.0 0.02 0.00 0.00 98 1012.1
20260505002409 51 3 6.0 11.0 0.01 0.00 0.00 98 1012.3
20260505000908 51 0 6.0 11.0 0.02 0.00 0.00 97 1012.3
20260504235408 51 11 6.0 11.0 0.04 0.00 0.00 97 1012.4
20260504233907 53 9 6.0 8.0 0.01 0.00 0.00 97 1012.5
20260504232406 53 0 4.0 8.0 0.01 0.00 0.00 98 1012.6
20260504230906 53 10 6.0 8.0 0.00 0.00 0.00 98 1012.6
20260504225406 53 11 4.0 11.0 0.00 0.00 0.00 98 1012.6
20260504223906 53 24 6.0 11.0 0.01 0.00 0.00 98 1012.6
20260504222406 53 18 6.0 8.0 0.01 0.00 0.00 97 1012.7
20260504220905 55 15 4.0 8.0 0.03 0.00 0.00 98 1012.9
20260504215405 55 24 6.0 11.0 0.03 0.00 0.00 97 1012.9
20260504213904 55 10 6.0 8.0 0.01 0.00 0.00 97 1013.0
20260504212403 55 4 6.0 8.0 0.03 0.00 0.00 97 1013.0
20260504210903 55 23 6.0 8.0 0.05 0.00 0.00 96 1013.1
20260504205403 57 15 6.0 8.0 0.05 0.00 0.00 96 1013.1
20260504203903 57 16 4.0 6.0 0.07 0.00 0.00 97 1013.1
20260504202402 57 13 2.0 4.0 0.17 0.00 0.00 98 1013.0
20260504200901 57 1 2.0 4.0 0.09 0.00 0.00 98 1013.0
20260504195402 57 19 2.0 4.0 0.18 0.00 0.00 99 1013.0
20260504193900 57 66 2.0 4.0 0.66 0.00 0.00 95 1013.0
20260504192400 59 38 2.0 8.0 0.03 0.00 0.00 93 1013.0
20260504190901 59 26 6.0 13.0 0.00 0.00 0.00 90 1012.5
20260504185400 59 33 6.0 13.0 0.00 0.00 0.00 88 1012.4
20260504183900 59 9 6.0 13.0 0.00 0.00 0.00 87 1012.4
20260504182359 60 9 8.0 13.0 0.00 0.00 0.00 85 1012.4
20260504180858 60 9 4.0 11.0 0.00 0.00 0.00 85 1012.3
20260504175357 60 28 8.0 11.0 0.00 0.00 0.00 84 1012.3
20260504173856 60 16 6.0 11.0 0.00 0.00 0.00 83 1012.2
20260504172355 62 7 6.0 11.0 0.00 0.00 0.00 81 1012.2
20260504170855 62 350 8.0 11.0 0.00 0.00 0.00 79 1012.2
20260504150851 64 355 4.0 6.0 0.00 0.00 0.00 68 1012.3
20260504140850 66 98 2.0 2.0 0.00 0.00 0.00 67 1012.7
20260504080841 59 174 2.0 6.0 0.00 0.00 0.00 88 1013.2